Date_and_time,latitude,longitude,wind_speed,RelWindDirFrom,WindDirFrom,air_pressure,air_temperature,relative_humidity,Temp,platform_speed_wrt_ground,air_pressure_at_mean_sea_level,platform_orientation
2019-12-06 23:40,50.6304433333333,-96.9807683333333,9.1,11.9,189,991.54,-8.0,88,0.87,0.0,1020.29,270.0
2019-12-06 23:50,50.6304416666667,-96.9807666666667,9.2,11.8,191,991.42,-8.1,89,0.87,0.0,1020.18,270.0
2019-12-07 00:00,50.6304433333333,-96.980755,8.9,11.9,190,991.31,-8.2,90,0.87,0.0,1020.07,90.0
2019-12-07 00:10,50.6304516666667,-96.9807616666667,7.8,10.7,191,991.34,-8.3,91,0.87,0.0,1020.12,90.0
2019-12-07 00:20,50.6304533333333,-96.980765,7.4,9.2,194,991.30,-8.4,92,0.87,0.0,1020.10,90.0
2019-12-07 00:30,50.6304516666667,-96.980765,6.7,9.0,195,991.28,-8.5,92,0.87,0.0,1020.08,90.0
2019-12-07 00:40,50.6304516666667,-96.980765,7.2,9.3,195,991.24,-8.5,93,0.87,0.0,1020.04,90.0
2019-12-07 00:50,50.6304516666667,-96.9807633333333,6.4,8.2,196,991.19,-8.6,93,0.87,0.0,1020.00,90.0
2019-12-07 01:00,50.6304516666667,-96.9807633333333,6.1,7.7,198,991.24,-8.7,94,0.88,0.0,1020.06,360.0
2019-12-07 01:10,50.6304533333333,-96.9807633333333,6.9,9.6,199,991.16,-8.7,94,0.88,0.0,1019.99,360.0
2019-12-07 01:20,50.6304533333333,-96.9807616666667,8.0,10.5,196,991.09,-8.7,95,0.88,0.0,1019.92,360.0
2019-12-07 01:30,50.630455,-96.980765,9.2,11.8,197,991.00,-8.6,95,0.88,0.0,1019.83,360.0
2019-12-07 01:40,50.63044,-96.9807733333333,8.7,11.5,201,990.95,-8.5,95,0.87,0.0,1019.78,360.0
2019-12-07 01:50,50.630445,-96.9807633333333,8.3,11.5,203,990.86,-8.4,95,0.88,0.0,1019.69,360.0
2019-12-07 02:00,50.63045,-96.980765,8.1,10.6,210,990.93,-8.4,95,0.88,0.0,1019.77,360.0
2019-12-07 02:10,50.6304483333333,-96.9807616666667,8.6,10.4,214,990.96,-8.5,95,0.88,0.0,1019.81,360.0
2019-12-07 02:20,50.63045,-96.9807633333333,7.2,10.1,216,991.14,-8.8,95,0.88,0.0,1020.02,360.0
2019-12-07 02:30,50.6304633333333,-96.9807583333333,6.8,8.6,216,991.16,-8.9,96,0.88,0.0,1020.05,360.0
2019-12-07 02:40,50.63046,-96.98078,5.4,7.2,213,991.17,-9.1,96,0.88,0.0,1020.07,360.0
2019-12-07 02:50,50.63046,-96.9807583333333,4.3,6.5,211,991.09,-9.2,96,0.87,0.0,1020.00,360.0
2019-12-07 03:00,50.6304616666667,-96.9807566666667,3.9,5.2,204,991.11,-9.2,96,0.87,0.0,1020.02,360.0
2019-12-07 03:10,50.6304616666667,-96.9807583333333,4.5,5.4,189,991.03,-9.3,97,0.87,0.0,1019.95,360.0
2019-12-07 03:20,50.63046,-96.9807566666667,5.1,5.6,187,990.81,-9.4,97,0.87,0.0,1019.72,360.0
2019-12-07 03:30,50.6304583333333,-96.9807533333333,4.3,5.4,189,990.75,-9.5,97,0.87,0.0,1019.66,360.0
2019-12-07 03:40,50.63046,-96.98079,3.6,4.5,194,990.73,-9.6,97,0.87,0.0,1019.64,360.0
2019-12-07 03:50,50.6304566666667,-96.980775,3.8,4.3,184,990.68,-9.7,97,0.87,0.0,1019.60,360.0
2019-12-07 04:00,50.630445,-96.9807583333333,4.0,4.4,189,990.73,-10.0,97,0.87,0.0,1019.66,360.0
2019-12-07 04:10,50.630445,-96.9807566666667,4.3,5.9,196,990.60,-9.9,98,0.87,0.0,1019.54,360.0
2019-12-07 04:20,50.63046,-96.9807583333333,5.6,7.3,209,990.59,-9.7,98,0.87,0.0,1019.53,360.0
2019-12-07 04:30,50.630475,-96.98081,5.9,8.1,216,990.55,-9.4,98,0.87,0.0,1019.48,360.0
2019-12-07 04:40,50.6304533333333,-96.9807566666667,5.5,7.3,217,990.50,-9.3,98,0.87,0.0,1019.43,360.0
2019-12-07 04:50,50.6304533333333,-96.9807583333333,4.6,5.9,211,990.44,-9.4,98,0.87,0.0,1019.38,360.0
2019-12-07 05:00,50.6304483333333,-96.9807466666667,5.2,6.3,205,990.39,-9.4,98,0.86,0.0,1019.33,113.6
2019-12-07 05:10,50.6304466666667,-96.9807616666667,4.4,5.8,207,990.49,-9.5,98,0.85,0.0,1019.44,113.6
2019-12-07 05:20,50.6304483333333,-96.9807683333333,3.4,4.6,206,990.45,-9.6,98,0.85,0.0,1019.41,113.6
2019-12-07 05:30,50.6304533333333,-96.9807683333333,3.1,3.8,200,990.50,-9.7,98,0.86,0.0,1019.47,113.6
2019-12-07 05:40,50.6304533333333,-96.980765,2.6,3.8,162,990.48,-9.8,98,0.85,0.0,1019.46,113.6
2019-12-07 05:50,50.6304516666667,-96.9807666666667,4.4,5.0,170,990.37,-9.9,98,0.85,0.0,1019.37,113.6
2019-12-07 06:00,50.6304516666667,-96.9807666666667,3.7,4.6,177,990.35,-10.0,99,0.86,0.0,1019.35,194.5
2019-12-07 06:10,50.6304516666667,-96.980765,4.1,5.4,191,990.13,-9.9,99,0.86,0.0,1019.11,194.5
2019-12-07 06:20,50.63045,-96.980755,5.0,6.6,190,990.11,-9.8,99,0.86,0.0,1019.06,194.5
2019-12-07 06:30,50.630455,-96.9807666666667,4.7,6.1,181,990.04,-9.8,99,0.85,0.0,1018.99,194.5
2019-12-07 06:40,50.630455,-96.980765,5.5,6.8,177,989.99,-9.9,99,0.85,0.0,1018.95,194.5
2019-12-07 06:50,50.6304466666667,-96.9807666666667,5.1,5.7,180,989.94,-10.0,99,0.86,0.0,1018.91,194.5
2019-12-07 07:00,50.6304483333333,-96.9807566666667,4.7,5.4,184,989.92,-10.0,99,0.86,0.0,1018.88,360.0
2019-12-07 07:10,50.63045,-96.9807583333333,4.8,6.5,186,989.87,-9.9,99,0.86,0.0,1018.83,360.0
2019-12-07 07:20,50.630455,-96.980765,7.1,8.9,190,989.70,-9.7,99,0.86,0.0,1018.66,360.0
2019-12-07 07:30,50.630455,-96.9807683333333,7.6,9.0,191,989.57,-9.5,99,0.86,0.0,1018.52,360.0
2019-12-07 07:40,50.630455,-96.9807683333333,8.2,10.7,192,989.39,-9.2,99,0.86,0.0,1018.32,360.0
2019-12-07 07:50,50.6304533333333,-96.9807666666667,7.6,10.4,193,989.26,-9.1,99,0.87,0.0,1018.18,360.0
2019-12-07 08:00,50.6304533333333,-96.9807683333333,6.8,8.5,192,989.19,-9.0,99,0.87,0.0,1018.10,291.5
2019-12-07 08:10,50.630455,-96.9807683333333,6.9,9.0,189,989.04,-8.9,99,0.87,0.0,1017.94,291.5
2019-12-07 08:20,50.630455,-96.9807683333333,6.9,8.9,188,988.90,-8.9,99,0.87,0.0,1017.80,291.5
2019-12-07 08:30,50.6304766666667,-96.9807533333333,7.5,8.8,185,988.80,-9.0,99,0.87,0.0,1017.70,291.5
2019-12-07 08:40,50.630455,-96.9807616666667,8.4,10.3,184,988.81,-8.9,99,0.87,0.0,1017.71,291.5
2019-12-07 08:50,50.630455,-96.9807616666667,8.3,9.6,184,988.78,-8.7,99,0.88,0.0,1017.67,291.5
2019-12-07 09:00,50.630455,-96.9807633333333,8.8,10.8,183,988.65,-8.5,99,0.88,0.0,1017.53,90.0
2019-12-07 09:10,50.6304333333333,-96.98073,7.8,10.3,183,988.52,-8.3,99,0.89,0.0,1017.37,90.0
2019-12-07 09:20,50.630455,-96.9807683333333,8.6,10.7,182,988.33,-8.2,99,0.89,0.0,1017.15,90.0
2019-12-07 09:30,50.63047,-96.9807783333333,7.6,10.2,190,988.32,-8.2,99,0.89,0.0,1017.13,90.0
2019-12-07 09:40,50.630465,-96.980775,9.2,12.9,187,988.25,-8.3,99,0.89,0.0,1017.05,90.0
2019-12-07 09:50,50.63046,-96.9807716666667,8.8,11.6,188,988.18,-8.3,99,0.90,0.0,1016.97,90.0
2019-12-07 10:00,50.6304616666667,-96.98077,8.3,10.4,189,988.01,-8.1,99,0.90,0.0,1016.78,360.0
2019-12-07 10:10,50.6304616666667,-96.9807683333333,7.4,10.4,188,987.80,-8.0,99,0.90,0.0,1016.57,360.0
2019-12-07 10:20,50.6304616666667,-96.9807666666667,7.4,9.7,190,987.65,-7.9,99,0.90,0.0,1016.40,360.0
2019-12-07 10:30,50.63046,-96.9807683333333,6.9,9.4,188,987.48,-7.6,99,0.91,0.0,1016.21,360.0
2019-12-07 10:40,50.63046,-96.9807766666667,7.3,9.2,187,987.28,-7.3,99,0.91,0.0,1015.98,360.0
2019-12-07 10:50,50.6304533333333,-96.9807566666667,7.9,9.7,184,986.96,-7.1,99,0.91,0.0,1015.63,360.0
2019-12-07 11:00,50.63045,-96.98076,6.3,8.8,187,986.81,-7.0,99,0.91,0.0,1015.46,90.0
2019-12-07 11:10,50.6304533333333,-96.98076,4.9,6.5,187,986.72,-6.8,99,0.91,0.0,1015.35,90.0
2019-12-07 11:20,50.63045,-96.9807616666667,4.9,6.1,188,986.57,-6.5,99,0.91,0.0,1015.18,90.0
2019-12-07 11:30,50.63045,-96.9807616666667,5.2,6.5,196,986.53,-6.2,99,0.91,0.0,1015.13,90.0
2019-12-07 11:40,50.6304483333333,-96.980805,4.9,6.0,194,986.52,-6.1,99,0.92,0.0,1015.10,90.0
2019-12-07 11:50,50.6304533333333,-96.9807683333333,4.8,5.9,191,986.37,-6.0,99,0.92,0.0,1014.94,90.0
2019-12-07 12:00,50.630445,-96.98077,5.2,7.5,175,985.96,-5.9,99,0.92,0.0,1014.51,360.0
2019-12-07 12:10,50.63045,-96.98077,6.8,8.7,178,985.75,-5.6,99,0.93,0.0,1014.27,360.0
2019-12-07 12:20,50.6304516666667,-96.9807633333333,8.1,11.2,176,985.54,-5.4,99,0.93,0.0,1014.03,360.0
2019-12-07 12:30,50.6304516666667,-96.98076,10.1,13.1,173,985.16,-4.8,99,0.93,0.0,1013.59,360.0
2019-12-07 12:40,50.6304416666667,-96.98076,12.0,16.2,171,984.97,-4.4,99,0.93,0.0,1013.36,360.0
2019-12-07 12:50,50.6304483333333,-96.9807633333333,13.3,16.7,173,984.72,-4.2,100,0.94,0.0,1013.08,360.0
2019-12-07 13:00,50.63045,-96.9807633333333,12.1,14.9,169,984.57,-4.2,100,0.94,0.0,1012.92,360.0
2019-12-07 13:10,50.6304516666667,-96.9807666666667,14.5,20.0,170,984.36,-4.1,100,0.94,0.0,1012.68,360.0
2019-12-07 13:20,50.63045,-96.9807666666667,15.5,19.6,170,984.08,-4.0,100,0.93,0.0,1012.38,360.0
2019-12-07 13:30,50.6304266666667,-96.9807733333333,14.4,17.0,169,983.95,-4.0,100,0.93,0.0,1012.23,360.0
2019-12-07 13:40,50.6304366666667,-96.9807783333333,14.2,18.4,170,983.73,-3.9,100,0.93,0.0,1012.00,360.0
2019-12-07 13:50,50.63044,-96.9807683333333,14.6,18.0,171,983.56,-3.8,100,0.93,0.0,1011.81,360.0
2019-12-07 14:00,50.6304416666667,-96.98077,13.7,18.1,172,983.51,-3.8,100,0.93,0.0,1011.74,360.0
2019-12-07 14:10,50.6304433333333,-96.98077,13.2,18.5,175,983.51,-3.7,100,0.93,0.0,1011.72,360.0
2019-12-07 14:20,50.6304433333333,-96.980765,14.1,17.0,172,983.27,-3.7,100,0.94,0.0,1011.44,360.0
2019-12-07 14:30,50.630445,-96.9807666666667,13.6,16.2,172,983.08,-3.6,100,0.94,0.0,1011.23,360.0
2019-12-07 14:40,50.630445,-96.9807666666667,14.2,18.2,171,982.90,-3.6,100,0.93,0.0,1011.02,360.0
2019-12-07 14:50,50.630445,-96.980765,14.1,17.0,168,982.78,-3.5,100,0.90,0.0,1010.90,360.0
2019-12-07 15:00,50.6304466666667,-96.9807666666667,13.1,16.1,166,982.60,-3.5,100,0.88,0.0,1010.71,360.0
2019-12-07 15:10,50.6304566666667,-96.9807883333333,14.2,16.8,165,982.26,-3.5,100,0.86,0.0,1010.35,360.0
2019-12-07 15:20,50.6304416666667,-96.9807616666667,13.9,17.3,164,982.03,-3.4,100,0.86,0.0,1010.11,360.0
2019-12-07 15:30,50.6304583333333,-96.9808116666667,14.4,17.1,164,982.11,-3.4,100,0.85,0.0,1010.19,360.0
2019-12-07 15:40,50.630445,-96.9807716666667,14.0,17.8,166,981.97,-3.3,100,0.84,0.0,1010.04,360.0
2019-12-07 15:50,50.6304433333333,-96.9807716666667,14.2,17.8,170,981.98,-3.2,100,0.84,0.0,1010.04,360.0
2019-12-07 16:00,50.630445,-96.9807683333333,14.1,16.9,172,981.84,-3.2,100,0.83,0.0,1009.89,360.0
2019-12-07 16:10,50.630445,-96.9807683333333,15.1,18.8,169,981.56,-3.2,100,0.82,0.0,1009.60,360.0
2019-12-07 16:20,50.630445,-96.9807666666667,16.1,19.0,168,981.35,-3.1,100,0.82,0.0,1009.38,360.0
2019-12-07 16:30,50.6304433333333,-96.9807666666667,16.0,18.9,168,981.15,-3.1,100,0.82,0.0,1009.17,360.0
2019-12-07 16:40,50.6304433333333,-96.9807666666667,16.8,20.5,166,980.80,-3.1,100,0.83,0.0,1008.80,360.0
2019-12-07 16:50,50.6304383333333,-96.9807816666667,16.4,20.0,163,980.40,-3.0,100,0.83,0.0,1008.40,360.0
2019-12-07 17:00,50.6304466666667,-96.9807833333333,16.5,20.2,163,980.08,-3.0,100,0.83,0.0,1008.07,293.6
2019-12-07 17:10,50.630445,-96.98078,17.2,21.3,164,979.91,-3.0,100,0.84,0.0,1007.88,293.6
2019-12-07 17:20,50.6304483333333,-96.9807733333333,17.4,20.2,166,979.78,-2.9,100,0.84,0.0,1007.74,293.6
2019-12-07 17:30,50.6304383333333,-96.9807766666667,15.4,18.7,167,979.60,-2.8,100,0.85,0.0,1007.54,293.6
2019-12-07 17:40,50.6304366666667,-96.98077,17.2,20.9,169,979.20,-2.7,100,0.85,0.0,1007.13,293.6
2019-12-07 17:50,50.6304383333333,-96.98077,16.9,20.2,169,979.00,-2.5,100,0.84,0.0,1006.90,293.6
2019-12-07 18:00,50.6304383333333,-96.9807683333333,16.7,20.1,169,978.72,-2.4,100,0.82,0.0,1006.61,142.0
2019-12-07 18:10,50.6304383333333,-96.98077,17.0,20.7,169,978.36,-2.3,100,0.81,0.0,1006.24,142.0
2019-12-07 18:20,50.6304383333333,-96.9807733333333,17.1,21.1,170,978.07,-2.3,100,0.80,0.0,1005.93,142.0
2019-12-07 18:30,50.63044,-96.9807733333333,18.3,22.8,172,977.88,-2.2,99,0.80,0.0,1005.74,142.0
2019-12-07 18:40,50.630415,-96.9808,16.8,21.6,173,977.78,-2.1,99,0.80,0.0,1005.62,142.0
2019-12-07 18:50,50.6304316666667,-96.9807866666667,17.8,21.9,173,977.45,-2.0,100,0.81,0.0,1005.28,142.0
2019-12-07 19:00,50.6304316666667,-96.9807833333333,15.7,22.1,174,977.15,-1.8,99,0.82,0.0,1004.96,235.2
2019-12-07 19:10,50.63043,-96.9807816666667,16.3,20.2,168,976.74,-1.8,100,0.83,0.0,1004.54,235.2
2019-12-07 19:20,50.6304316666667,-96.9807783333333,17.9,22.0,166,976.32,-1.8,100,0.82,0.0,1004.09,235.2
2019-12-07 19:30,50.6304316666667,-96.980775,16.9,20.3,170,976.11,-1.7,100,0.81,0.0,1003.87,235.2
2019-12-07 19:40,50.6304316666667,-96.9807733333333,16.5,19.6,170,975.94,-1.7,100,0.82,0.0,1003.68,235.2
2019-12-07 19:50,50.6304333333333,-96.9807733333333,17.0,20.5,172,975.64,-1.6,100,0.82,0.0,1003.37,235.2
2019-12-07 20:00,50.630435,-96.9807733333333,16.8,20.4,171,975.43,-1.5,100,0.82,0.0,1003.14,143.4
2019-12-07 20:10,50.6304366666667,-96.9807716666667,16.9,21.6,174,975.20,-1.4,100,0.83,0.0,1002.89,143.4
2019-12-07 20:20,50.6304366666667,-96.9807733333333,16.2,20.5,173,975.01,-1.3,100,0.83,0.0,1002.69,143.4
2019-12-07 20:30,50.6304366666667,-96.9807733333333,16.2,20.5,175,974.96,-1.2,100,0.83,0.0,1002.63,143.4
2019-12-07 20:40,50.6304333333333,-96.980775,14.0,17.2,182,975.06,-1.2,99,0.83,0.0,1002.72,143.4
2019-12-07 20:50,50.63044,-96.98077,10.7,14.4,185,975.05,-1.3,99,0.82,0.0,1002.71,143.4
2019-12-07 21:00,50.6304383333333,-96.9807683333333,12.7,16.9,182,974.88,-1.3,99,0.83,0.0,1002.54,0.0
2019-12-07 21:10,50.6304383333333,-96.9807683333333,12.5,15.6,178,974.64,-1.4,99,0.83,0.0,1002.29,0.0
2019-12-07 21:20,50.63044,-96.98077,13.4,16.4,178,974.48,-1.4,99,0.84,0.0,1002.13,0.0
2019-12-07 21:30,50.6304416666667,-96.98077,10.5,14.4,184,974.56,-1.4,99,0.84,0.0,1002.21,0.0
2019-12-07 21:40,50.6304416666667,-96.9807716666667,10.6,13.9,187,974.52,-1.5,99,0.85,0.0,1002.16,0.0
2019-12-07 21:50,50.6304416666667,-96.9807716666667,9.9,13.2,197,974.79,-1.5,99,0.84,0.0,1002.44,0.0
2019-12-07 22:00,50.63044,-96.9807716666667,6.8,9.9,214,975.09,-1.5,99,0.83,0.0,1002.74,36.6
2019-12-07 22:10,50.6304416666667,-96.9807716666667,6.9,10.3,209,975.03,-1.6,99,0.84,0.0,1002.68,36.6
2019-12-07 22:20,50.6304416666667,-96.9807733333333,7.0,11.2,203,974.88,-1.6,99,0.85,0.0,1002.53,36.6
2019-12-07 22:30,50.6304516666667,-96.9807766666667,7.7,11.6,208,974.88,-1.7,99,0.84,0.0,1002.52,36.6
2019-12-07 22:40,50.6304433333333,-96.9807766666667,5.4,7.3,213,975.01,-1.7,99,0.84,0.0,1002.67,36.6
2019-12-07 22:50,50.6304416666667,-96.9807716666667,5.3,7.5,218,975.00,-1.7,99,0.84,0.0,1002.66,36.6
2019-12-07 23:00,50.6304433333333,-96.98077,3.6,6.0,230,975.11,-1.7,99,0.85,0.0,1002.77,48.3
2019-12-07 23:10,50.630445,-96.98077,3.3,5.0,236,975.04,-1.8,99,0.85,0.0,1002.71,48.3
2019-12-07 23:20,50.630445,-96.98077,3.8,5.8,249,975.10,-1.8,99,0.85,0.0,1002.77,48.3
2019-12-07 23:30,50.630445,-96.9807683333333,3.5,5.2,223,975.04,-1.9,99,0.85,0.0,1002.72,48.3
2019-12-07 23:40,50.630445,-96.980765,3.2,4.2,227,975.06,-1.9,99,0.84,0.0,1002.73,48.3
2019-12-07 23:50,50.630445,-96.9807633333333,1.9,3.7,245,975.02,-1.9,99,0.84,0.0,1002.70,48.3
